星链-35989(STARLINK-35989)

导读

STARLINK-35989是美国SpaceX星链星座中的一颗卫星,于2025年12月1日发射升空。星链项目旨在构建全球卫星互联网星座,为全球提供高速低延迟的宽带网络服务,覆盖偏远地区及地面网络难以抵达区域。该卫星加入星座后,将进一步扩充星链网络的容量与覆盖范围,提升全球卫星互联网服务的稳定性和服务能力。

基本信息
目录编号:
66819
目录名称:
STARLINK-35989
国际标识:
2025-278AE
轨道中心:
EARTH
卫星名称:
星链-35989
卫星全名:
星链-35989(STARLINK-35989)
卫星状态:
在轨 (已飞行286 天)
发射日期:
2025-12-01 UTC
国别 :
美国 (US)
星等 :
--
该卫星已列入 空间交会检测服务 Space Conjunction Data Service (SCDS) ,当前飞行风险评估等级: 无高风险
轨道信息
数据来源 国际轨道数据
星历时间: 2026-09-13T01:31:18+0800
12小时前
查看轨道信息
半长轴: 6861.164km
偏心率: 0.000119
轨道倾角: 43.002°
近地点辐角 269.529°
升交点赤经 138.132°
平近点角 90.543°
近地点: 482.21km
远地点: 483.844km
周期: 94.266分钟
每日圈数: 15.275876
详细信息
固有亮度:
5
最大亮度:
2.5
卫星平台:
Starlink V1.0
覆盖范围:
全球
运营商:
太空探索技术公司
运营商所在国:
美国
制造商(研发单位):
太空探索技术公司
制造商所在国:
美国
使用方式:
暂无
卫星简介
Starlink 计划是 SpaceX 推出的全球卫星互联网项目,通过发射低轨道卫星,为全球尤其是偏远地区提供高速、低延迟的互联网服务。自 2019 年起,Starlink 已部署数千颗卫星,旨在缩小全球数字鸿沟,推动互联网普及。该项目还为军事、航空等行业提供通信支持,带来广泛经济效益。
2D轨道图
3D轨道图
轨道高度分析图
轨道倾角分析图
轨道综合分析图
查看轨道综合分析图
交会数据列表
事件ID 空间交会对象 最接近时刻(TCA) 交会距离 交会风险概率(CRP) 交会风险指数(CRI) 操作
CDM_260915-030805-868506-681921
2026-09-15T
03:08:27+0000
1.282 km
极远距离
3.600549E-6 低风险 0.46
CDM_260914-182306-332006-681921
2026-09-14T
18:23:30+0000
1.807 km
极远距离
2.459544E-6 低风险 0.43
CDM_260914-164906-332006-681921
2026-09-14T
16:49:21+0000
1.847 km
极远距离
2.31935E-6 低风险 0.42
CDM_260914-195706-332006-681921
2026-09-14T
19:57:39+0000
2.102 km
极远距离
1.680285E-6 低风险 0.4
CDM_260914-151506-332006-681921
2026-09-14T
15:15:12+0000
2.200 km
极远距离
1.519568E-6 低风险 0.39
CDM_260914-054806-402206-681921
2026-09-14T
05:48:37+0000
2.554 km
极远距离
1.472658E-6 低风险 0.38
CDM_260914-213106-332006-681921
2026-09-14T
21:31:48+0000
2.623 km
极远距离
1.100716E-6 低风险 0.36
CDM_260914-134106-332006-681921
2026-09-14T
13:41:03+0000
2.747 km
极远距离
1.028937E-6 低风险 0.35
与全量物体交会距离演化趋势
与全量物体交会风险概率演化趋势